Regional Weather Roundup
Issued by NWS Wakefield, VA

Home | Current Version | Previous Version | Text Only | Print | Product List | Glossary On
Versions: 1 2 3 4 5 6 7 8 9 10 11 12 13 14 15 16 17 18 19 20 21 22 23 24 25 26 27 28 29 30 31 32 33 34 35 36 37 38 39 40 41 42 43 44 45 46 47 48 49 50
000
ASUS41 KAKQ 302310
RWRAKQ

REGIONAL WEATHER ROUNDUP
NATIONAL WEATHER SERVICE WAKEFIELD VA
600 PM EST FRI JAN 30 2015

Note: "fair" indicates few or no clouds below 12,000 feet with no
significant weather and/or obstructions to visibility. * = Denotes
station may not report precipitation (e.g., rain,snow,etc.),
thunder or fog.

VAZ042-051-052>054-056-310000-
NORTHERN VIRGINIA

CITY           SKY/WX    TMP DP  RH WIND       PRES   REMARKS
WASH NATIONAL  PTCLDY    33  10  38 NW24G35   30.18R WCI  20
DULLES         PTCLDY    27   9  46 NW31G43   30.16R WCI  10
FORT BELVOIR   CLEAR     30  10  41 NW26G33   30.19R WCI  16
QUANTICO       CLEAR     31   8  38 N20G31    30.22R WCI  19
FREDERICKSBRG* CLEAR     33  11  40 NW14G26   30.19R WCI  23
STAFFORD*      CLEAR     31   7  37 NW24G37   30.22R WCI  17
WARRENTON      CLEAR     30  16  55 NW15G25   30.19R WCI  19
CULPEPER*      CLEAR     32   9  37 NW13G18   30.20R WCI  22
MANASSAS*      CLEAR     28  12  50 NW25G39   30.20R WCI  14
LEESBURG*      PTCLDY    28  14  54 NW23G36   30.21R WCI  14
WINCHESTER     PTCLDY    27   7  43 NW14      30.23R WCI  15
FRONT ROYAL*   FAIR      27  10  50 NW13      30.20R WCI  16
LURAY*         FAIR      30  12  47 NW8G29    30.21R
$$

VAZ048-049-060>072-079>083-310000-
CENTRAL AND SOUTH CENTRAL VIRGINIA

CITY           SKY/WX    TMP DP  RH WIND       PRES   REMARKS
RICHMOND       PTCLDY    36   9  32 NW22      30.16R WCI  25
CHESTERFIELD*  FAIR      36   7  30 N14       30.17R
PETERSBURG*    CLEAR     37   9  31 NW10      30.16R
HANOVER        CLEAR     34   9  35 NW8G16    30.18R
TAPPAHANNOCK*  CLEAR     35   6  29 NW13G18   30.15R
QUINTON*       FAIR      35   9  33 NW13G22   30.15R
CHARLOTTSVILLE CLEAR     30   7  37 NW10G22   30.19R WCI  21
GORDONSVILLE*  FAIR      31   8  38 NW13G22   30.18R WCI  21
ORANGE*        CLEAR     32  10  40 NW8G18    30.21R
LOUISA*        CLEAR     32  10  40 NW13G23   30.17R WCI  22
BUMPASS*       FAIR      32   9  38 NW8G16    30.17R
FARMVILLE*     CLEAR     35   7  31 N5        30.18R
CREWE*         FAIR      34   5  29 NW10G21   30.17R
FORT PICKETT*  FAIR      34   8  34 NW13      30.16R WCI  25
CHASE CITY*    FAIR      38  12  34 NW9G16    30.17R
CLARKSVILLE*   FAIR      36  10  35 NW7       30.18R
SOUTH HILL*    CLEAR     36   8  31 NW9G18    30.21R
LAWRENCEVILLE* FAIR      37  11  34 NW10G18   30.14R
EMPORIA*       PTCLDY    37  10  32 W16G26    30.16R
$$

VAZ088>098-310000-
SOUTHEAST VIRGINIA

CITY           SKY/WX    TMP DP  RH WIND       PRES   REMARKS
NORFOLK        MOCLDY    39  15  37 NW13G23   30.09R
VIRGINIA BEACH MOCLDY    39  19  44 NW24G41   30.08R
NORFOLK NAVAL  PTCLDY    41  14  33 NW21G30   30.12R
WEST POINT*    CLEAR     38   8  28 NW12G22   30.15R
SALUDA*        FAIR      35  15  43 NW21G31   30.11R WCI  24
NEWPORT NEWS   CLEAR     40  11  30 NW16G24   30.11R
LANGLEY AFB    CLEAR     37  13  38 NW17      30.10R
FORT EUSTIS    CLEAR     38  17  42 N16G29    30.10R
WILLIAMSBURG*    N/A     39  14  35 NW16G32   30.13R
HR EXEC AP*    CLOUDY    37  16  41 NW7G21    30.13R
FRANKLIN*      CLOUDY    38  17  41 N12G18    30.12R
WAKEFIELD      PTCLDY    38  12  34 NW10G25   30.14R
$$

VAZ020-022-025-037-045-310000-
WEST CENTRAL AND SOUTHWEST VIRGINIA

CITY           SKY/WX    TMP DP  RH WIND       PRES   REMARKS
STAUNTON*      PTCLDY    28   8  43 NW12      30.22R WCI  18
WAYNESBORO*    FAIR      26   8  46 NW9G17    30.19R
HOT SPRINGS VA CLOUDY    15   7  72 NW18G31   30.02S WCI  -2
LYNCHBURG      CLEAR     30   7  37 NW8G25    30.20R
DANVILLE       CLEAR     36   9  32 NW13G23   30.22R
SOUTH BOSTON*  FAIR      35   8  32 NW10G20   30.20R
MARTINSVILLE   CLEAR     33   5  30 N16G26    30.25R WCI  22
ROANOKE        PTCLDY    27   8  44 NW15G24   30.26R WCI  15
BLACKSBURG     PTCLDY    23   7  50 W8        30.24R
DUBLIN*        CLEAR     27  11  50 NW7       30.23R
MARION*        CLEAR     28   9  44 W22G31    30.22R WCI  14
HILLSVILLE*    CLEAR     26   8  47 NW17G28   30.15R WCI  12
RICHLANDS*     FAIR      25  10  54 NW9       30.26R
WISE*          CLEAR     28  12  50 NW7       30.28S
ABINGDON*      CLEAR     32  14  47 N9        30.28R
$$

MDZ021>025-VAZ099-100-310000-
SOUTHERN MARYLAND AND THE DELMARVA PENINSULA

CITY           SKY/WX    TMP DP  RH WIND       PRES   REMARKS
PATUXENT RIVER PTCLDY    33  12  41 NW20G31   30.11R WCI  21
BAY BRIDGE APT   N/A     32  12  43 NW26G38   30.12R WCI  18
LEONARDTOWN    CLEAR     32  12  43 W13G24    30.14R WCI  22
DOVER          PTCLDY    32  15  50 NW22G31   30.04R WCI  20
GEORGETOWN     CLEAR     33  16  49 NW13G25   30.04R WCI  24
EASTON         CLEAR     32  16  51 NW23G40   30.13  WCI  19
CAMBRIDGE      PTCLDY    34  16  47 NW21G31   30.09R WCI  22
SALISBURY      CLEAR     35  15  44 NW15G24   30.06R
OCEAN CITY     CLEAR     34  16  47 NW15G31   30.03R WCI  24
WALLOPS ISLAND CLEAR     34  16  47 NW16G29   30.06R WCI  24
ACCOMACK*      CLEAR     34  18  51 NW22G33   30.07R WCI  22
$$

NCZ012>017-030>032-310000-
NORTH CENTRAL AND EASTERN NORTH CAROLINA

CITY           SKY/WX    TMP DP  RH WIND       PRES   REMARKS
ROANOKE RAPIDS FAIR      39  14  35 NW12G23   30.15R
RALEIGH        PTCLDY    40  12  32 NW8G28    30.18R
ELIZABETH CITY CLOUDY    39  29  67 N7        30.08R
AHOSKIE*       CLOUDY    42  14  32 NW8       30.13R
EDENTON*       CLOUDY    43  24  45 NW10G17   30.08R
CURRITUCK*     MOCLDY    38  28  66 NW3       30.08R
KILL DEVIL HLS CLOUDY    38  30  71 NW8       30.06R
MANTEO         CLOUDY    37  30  75 N12       30.08R
CAPE HATTERAS  PTCLDY    42  29  59 NW7       30.07R
TARBORO*       FAIR      43  15  32 NW9G21    30.15R
GOLDSBORO      CLEAR     48  21  34 NW16G25   30.06R
WASHINGTON     CLEAR     43  17  35 NW9G17    30.11R
GREENVILLE     CLEAR     43  16  33 NW14G22   30.14R
NEW BERN       CLEAR     46  18  32 NW9       30.11R
WILMINGTON     CLEAR     46  19  34 NW13      30.14R
$$

VAZ048-310000-
ELSEWHERE

CITY           SKY/WX    TMP DP  RH WIND       PRES   REMARKS
HARRISBURG PA  PTCLDY    24  11  57 NW24G30   30.13R WCI   8
BALTIMORE      PTCLDY    28  10  46 NW15G33   30.14R WCI  16
ANNAPOLIS      CLEAR     31  14  49 NW16G31   30.12R WCI  20
ANDREWS AFB    CLEAR     30   9  42 NW29G37   30.14R WCI  15
PHILADELPHIA   MOCLDY    33  19  56 NW23G35   30.03R WCI  21
HENDERSON NC   CLEAR     36   7  29 NW7       30.19R
GREENSBORO     CLEAR     37   9  31 NW10      30.20R
ROCKY MOUNT    CLEAR     42  13  30 NW16G25   30.16R
$$

VAZ100-310000-
MARINE

STATION/POSITION TIME  TEMP    WIND        PRES    WAVE   SWELL
                       AIR SEA DIR/SP/G            HT/PER HT/PER
                 (UTC) (F)     (DEG/KT/KT) (MB)    (FT/S) (FT/S)
BRANDYWINE LGT   2300   35 36  330/ 25/ 31 1016.0R
CAPE MAY NJ      2300   35 38              1015.4R
LEWES DE         2300   35 36  310/ 19/ 22 1016.2R
15NM E FENWICK I 2300   37 40              1014.7R   6/ 5
OCEAN-CITY-INLET 2300   35 38  330/ 22/ 28 1016.3R
WACHAPREAGUE VA  2300   36 38  290/  4/ 12 1018.0R
THOMAS POINT MD  2300   31 36  300/ 26/ 29 1020.5R
GOOSES REEF MD   2300   34     VRB 23/ 29  1018.1R
COVE POINT MD    2300   33     330/ 18/ 27 1018.8R
SOLOMONS ISLAND  2300      37                N/A
BISHOPS HEAD MD  2300   34 37  310/ 21/ 30 1018.4R
PINEY POINT MD   2300          330/ 32/ 34   N/A
POTOMAC MD       2300   36     320/ 25/ 29 1018.4R
CAMBRIDGE MD     2300   33 35  310/ 22/ 26 1018.7R
LEWISETTA VA     2300   34 37  330/ 20/ 28 1020.0R
RAPPAHANNOCK LGT 2300          310/ 29/ 32 1019.0R
STINGRAY PT      2300   37     320/ 23/ 29 1019.3R
YORK RVR RNG VA  2300   38     340/ 30/ 37 1018.2R
YORKTOWN VA      2300   38 39  320/ 20/ 26 1019.0R
JAMESTOWN VA     2300   39     360/ 16/ 23   N/A
DOMINION TERM VA 2300   40     340/ 16/ 28 1018.9R
KIPTOPEKE VA     2300      44  340/ 28/ 34   N/A
CHES BAY BRIDGE  2300   39 40  310/ 27/ 34 1018.3R
CAPE HENRY VA    2300   39     320/ 29/ 33 1017.1R
CHESAPEAKE LGHT  2200   39     330/ 31/ 33 1017.2R
WILLOUBY STN VA  2300   39     330/ 24/ 29 1019.5R
S CRANEY ISL VA  2300          330/ 16/ 24 1018.9R
CAPE HENRY BUOY  2300      42                N/A     6/ 5
1ST LANDING BUOY 2300   39     330/ 25/ 33 1017.9R
CAPE CHARLES BUO 2300      41                N/A     5/ 4   2/10
OFFSHORE WE BUOY 2300      43                N/A     7/ 6   2/10
64NM E OF VA BCH 2300   41 49  320/ 29/ 35 1015.7R  10/ 7
DUCK PIER NC     2300   38 44  330/ 14/ 16 1017.1R
44100 DUCK FRF   2300      45                N/A     6/ 6
44056 DUCK FRF   2300      44                N/A     5/ 6
OREGON INLET NC  2300   39 42  340/  9/ 14 1017.9R
HATTERAS NC      2300   43 46  330/ 15/ 17 1018.4R


USA.gov is the U.S. government's official web portal to all federal, state and local government web resources and services.